Greeley, CO

6:27 AM MST on January 17, 2017 (GMT -0700)
Greeley-Weld County

Weather History for KGXY - May, 2013

Change the Weather History Date:

Monday, May 27, 2013

  Actual Average Record
Temperature  
Mean Temperature 65 °F -  
Max Temperature 84 °F - 95 °F (2006)
Min Temperature 46 °F - 38 °F (1992)
Degree Days  
Heating Degree Days 0    
Month to date heating degree days  
Cooling Degree Days 0    
Month to date cooling degree days  
Growing Degree Days 15 (Base 50)    
Moisture  
Dew Point 34 °F    
Average Humidity 36    
Maximum Humidity 66    
Minimum Humidity 11    
Precipitation  
Precipitation 0.00 in - 0.65 in (1972)
Sea Level Pressure  
Sea Level Pressure 29.81 in    
Wind  
Wind Speed 6 mph (NW)    
Max Wind Speed 26 mph    
Max Gust Speed 32 mph    
Visibility 10 miles    
Events      
T = Trace of Precipitation, MM = Missing Value Source: NWS Daily Summary

Daily Weather History Graph

Daily Weather History Graph

Search for Another Location

Airport or City:

Trip Planner

Search our weather history database for the weather conditions in past years. The results will help you decide how hot, cold, wet, or windy it might be!

Date:

Astronomy

May. 27, 2013 Rise Set
Actual Time 5:32 AM MDT 8:19 PM MDT
Civil Twilight 5:00 AM MDT 8:51 PM MDT
Nautical Twilight 4:20 AM MDT 9:31 PM MDT
Astronomical Twilight 3:34 AM MDT 10:17 PM MDT
Moon 11:00 PM MDT (5/27) 8:13 AM MDT (5/27)
Length of Visible Light 15h 50m
Length of Day
14h 46m
Waning Gibbous, 90% of the Moon is Illuminated
May 27
Waning Gibbous
May 31
Last Quarter
Jun 8
New
Jun 16
First Quarter
Jun 23
Full

Hourly Weather History & Observations

Time (MDT) Temp. Windchill Dew Point Humidity Pressure Visibility Wind Dir Wind Speed Gust Speed Precip Events Conditions
12:15 AM 64.4 °F - 37.4 °F 37% 29.85 in 10.0 mi SW 5.8 mph - N/A   Clear
12:35 AM 60.8 °F - 39.2 °F 45% 29.84 in 10.0 mi SSW 5.8 mph - N/A   Clear
12:55 AM 57.2 °F - 39.2 °F 51% 29.84 in 10.0 mi SE 3.5 mph - N/A   Clear
1:15 AM 57.2 °F - 37.4 °F 48% 29.84 in 10.0 mi North 6.9 mph - N/A   Clear
1:35 AM 55.4 °F - 37.4 °F 51% 29.85 in 10.0 mi Calm Calm - N/A   Clear
1:55 AM 53.6 °F - 37.4 °F 54% 29.84 in 10.0 mi Calm Calm - N/A   Clear
2:15 AM 53.6 °F - 37.4 °F 54% 29.85 in 10.0 mi WNW 4.6 mph - N/A   Clear
2:35 AM 55.4 °F - 37.4 °F 51% 29.83 in 10.0 mi NW 5.8 mph - N/A   Clear
2:55 AM 51.8 °F - 37.4 °F 58% 29.83 in 10.0 mi NNW 4.6 mph - N/A   Clear
3:15 AM 50.0 °F - 35.6 °F 58% 29.83 in 10.0 mi NW 9.2 mph - N/A   Clear
3:35 AM 48.2 °F - 37.4 °F 66% 29.84 in 10.0 mi ENE 4.6 mph - N/A   Clear
3:55 AM 50.0 °F - 37.4 °F 62% 29.84 in 10.0 mi NW 4.6 mph - N/A   Clear
4:15 AM 46.4 °F 44.3 °F 35.6 °F 66% 29.85 in 10.0 mi ENE 4.6 mph - N/A   Clear
4:35 AM 46.4 °F - 35.6 °F 66% 29.85 in 10.0 mi Calm Calm - N/A   Clear
4:55 AM 46.4 °F 44.3 °F 35.6 °F 66% 29.85 in 10.0 mi WNW 4.6 mph - N/A   Clear
5:15 AM 48.2 °F - 35.6 °F 62% 29.85 in 10.0 mi Calm Calm - N/A   Clear
5:35 AM 48.2 °F - 35.6 °F 62% 29.85 in 10.0 mi NW 4.6 mph - N/A   Clear
5:55 AM 48.2 °F - 35.6 °F 62% 29.84 in 10.0 mi West 3.5 mph - N/A   Clear
6:15 AM 48.2 °F - 37.4 °F 66% 29.85 in 10.0 mi NW 5.8 mph - N/A   Clear
6:35 AM 50.0 °F - 39.2 °F 66% 29.85 in 10.0 mi NW 6.9 mph - N/A   Clear
6:55 AM 55.4 °F - 41.0 °F 58% 29.85 in 10.0 mi WNW 5.8 mph - N/A   Clear
7:15 AM 57.2 °F - 39.2 °F 51% 29.86 in 10.0 mi WNW 10.4 mph - N/A   Clear
7:35 AM 59.0 °F - 39.2 °F 48% 29.86 in 10.0 mi WNW 11.5 mph - N/A   Clear
7:55 AM 57.2 °F - 39.2 °F 51% 29.86 in 10.0 mi West 8.1 mph - N/A   Clear
8:15 AM 60.8 °F - 41.0 °F 48% 29.86 in 10.0 mi WNW 8.1 mph - N/A   Clear
8:35 AM 64.4 °F - 42.8 °F 45% 29.86 in 10.0 mi West 3.5 mph - N/A   Clear
8:55 AM 66.2 °F - 44.6 °F 46% 29.86 in 10.0 mi NNW 4.6 mph - N/A   Clear
9:15 AM 69.8 °F - 44.6 °F 40% 29.85 in 10.0 mi WNW 4.6 mph - N/A   Clear
9:35 AM 71.6 °F - 42.8 °F 35% 29.85 in 10.0 mi WSW 4.6 mph - N/A   Clear
9:55 AM 73.4 °F - 41.0 °F 31% 29.84 in 10.0 mi WSW 3.5 mph - N/A   Clear
10:15 AM 78.8 °F - 39.2 °F 24% 29.83 in 10.0 mi South 6.9 mph - N/A   Clear
10:35 AM 78.8 °F - 33.8 °F 20% 29.83 in 10.0 mi SSW 5.8 mph - N/A   Clear
10:55 AM 80.6 °F - 30.2 °F 16% 29.82 in 10.0 mi SW 6.9 mph - N/A   Clear
11:15 AM 82.4 °F - 26.6 °F 13% 29.82 in 10.0 mi SSW 9.2 mph - N/A   Clear
11:35 AM 82.4 °F - 26.6 °F 13% 29.82 in 10.0 mi ESE 5.8 mph - N/A   Clear
11:55 AM 82.4 °F - 24.8 °F 12% 29.81 in 10.0 mi North 4.6 mph - N/A   Clear
12:15 PM 84.2 °F - 26.6 °F 12% 29.80 in 10.0 mi NW 6.9 mph - N/A   Clear
12:35 PM 82.4 °F - 26.6 °F 13% 29.80 in 10.0 mi WNW 6.9 mph - N/A   Clear
12:55 PM 82.4 °F - 24.8 °F 12% 29.79 in 10.0 mi West 9.2 mph - N/A   Clear
1:15 PM 82.4 °F - 24.8 °F 12% 29.79 in 10.0 mi West 5.8 mph - N/A   Clear
1:35 PM 82.4 °F - 24.8 °F 12% 29.78 in 10.0 mi SSW 4.6 mph - N/A   Clear
1:55 PM 84.2 °F - 24.8 °F 11% 29.77 in 10.0 mi West 8.1 mph - N/A   Clear
2:15 PM 82.4 °F - 24.8 °F 12% 29.76 in 10.0 mi WNW 3.5 mph - N/A   Clear
2:35 PM 82.4 °F - 24.8 °F 12% 29.76 in 10.0 mi SW 5.8 mph - N/A   Clear
2:55 PM 84.2 °F - 26.6 °F 12% 29.76 in 10.0 mi WNW 9.2 mph - N/A   Clear
3:15 PM 84.2 °F - 24.8 °F 11% 29.75 in 10.0 mi West 15.0 mph 23.0 mph N/A   Clear
3:35 PM 84.2 °F - 26.6 °F 12% 29.75 in 10.0 mi NNW 20.7 mph 28.8 mph N/A   Clear
3:55 PM 82.4 °F - 26.6 °F 13% 29.75 in 10.0 mi NNW 18.4 mph 21.9 mph N/A   Clear
4:15 PM 82.4 °F - 26.6 °F 13% 29.75 in 10.0 mi NW 19.6 mph 27.6 mph N/A   Clear
4:35 PM 80.6 °F - 26.6 °F 14% 29.75 in 10.0 mi NW 26.5 mph 32.2 mph N/A   Clear
4:55 PM 82.4 °F - 28.4 °F 14% 29.74 in 10.0 mi NNW 21.9 mph 28.8 mph N/A   Clear
5:15 PM 82.4 °F - 26.6 °F 13% 29.74 in 10.0 mi NW 13.8 mph 21.9 mph N/A   Clear
5:35 PM 80.6 °F - 26.6 °F 14% 29.74 in 10.0 mi NW 9.2 mph - N/A   Clear
5:55 PM 80.6 °F - 26.6 °F 14% 29.74 in 10.0 mi NW 8.1 mph - N/A   Clear
6:15 PM 80.6 °F - 26.6 °F 14% 29.75 in 10.0 mi WNW 9.2 mph - N/A   Partly Cloudy
6:35 PM 80.6 °F - 24.8 °F 13% 29.76 in 10.0 mi WNW 9.2 mph - N/A   Scattered Clouds
6:55 PM 78.8 °F - 24.8 °F 14% 29.76 in 10.0 mi WNW 8.1 mph - N/A   Clear
7:15 PM 78.8 °F - 24.8 °F 14% 29.76 in 10.0 mi NW 4.6 mph - N/A   Clear
7:35 PM 73.4 °F - 33.8 °F 23% 29.77 in 10.0 mi ENE 6.9 mph - N/A   Clear
7:55 PM 69.8 °F - 35.6 °F 28% 29.77 in 10.0 mi East 11.5 mph - N/A   Clear
8:15 PM 66.2 °F - 37.4 °F 35% 29.77 in 10.0 mi East 15.0 mph - N/A   Clear
8:35 PM 64.4 °F - 37.4 °F 37% 29.78 in 10.0 mi East 10.4 mph - N/A   Clear
8:55 PM 62.6 °F - 37.4 °F 39% 29.79 in 10.0 mi ENE 8.1 mph - N/A   Clear
9:15 PM 60.8 °F - 39.2 °F 45% 29.80 in 10.0 mi East 6.9 mph - N/A   Clear
9:35 PM 59.0 °F - 39.2 °F 48% 29.81 in 7.0 mi East 4.6 mph - N/A   Clear
9:55 PM 59.0 °F - 39.2 °F 48% 29.82 in 10.0 mi ESE 6.9 mph - N/A   Clear
10:15 PM 57.2 °F - 39.2 °F 51% 29.82 in 10.0 mi SE 5.8 mph - N/A   Clear
10:35 PM 55.4 °F - 39.2 °F 54% 29.82 in 10.0 mi Calm Calm - N/A   Clear
10:55 PM 55.4 °F - 37.4 °F 51% 29.81 in 10.0 mi Calm Calm - N/A   Clear
11:15 PM 53.6 °F - 37.4 °F 54% 29.81 in 10.0 mi NW 3.5 mph - N/A   Clear
11:35 PM 53.6 °F - 35.6 °F 51% 29.81 in 10.0 mi NW 9.2 mph - N/A   Clear
11:55 PM 53.6 °F - 37.4 °F 54% 29.81 in 10.0 mi NW 4.6 mph - N/A   Clear